Regional Weather Roundup
Issued by NWS

Home | Current Version | Previous Version | Text Only | Print | Product List | Glossary Off
Versions: 1 2 3 4 5 6 7 8 9 10 11 12 13 14 15 16 17 18 19 20 21 22 23 24 25 26 27 28 29 30 31 32 33 34 35 36 37 38 39 40 41 42 43 44 45 46 47 48 49 50

000
ASUS43 KLSX 270107
RWRMO

WEATHER SUMMARY FOR MISSOURI
NATIONAL WEATHER SERVICE SPRINGFIELD MO
800 PM CDT TUE MAY 26 2015

NOTE: "FAIR" INDICATES FEW OR NO CLOUDS BELOW 12,000 FEET WITH NO
       SIGNIFICANT WEATHER AND/OR OBSTRUCTIONS TO VISIBILITY.
       CURRENT SKY AND/OR WEATHER CONDITIONS ARE NOT AVAILABLE FOR
       CHILLICOTHE AND FARMINGTON.

MOZ001>031-035>038-043-044-053-054-270200-
...NORTHERN AND WESTERN MISSOURI...

CITY           SKY/WX    TMP DP  RH WIND       PRES   REMARKS
KANSAS CTY INT PTCLDY    73  60  63 W8        29.88S
KANSAS C DTWN  PTCLDY    77  58  51 W9        29.87R
LEE`S SUMMIT   MOCLDY    75  59  57 W9        29.89S
ST JOSEPH      CLEAR     73  58  59 W10       29.87R
CHILLICOTHE      N/A     75  61  61 VRB5      29.87R
KIRKSVILLE     MOCLDY    73  60  63 W7        29.86R

$$
MOZ066>068-077>081-088>096-101>105-270200-
...SOUTHWEST MISSOURI...

CITY           SKY/WX    TMP DP  RH WIND       PRES   REMARKS
SPRINGFIELD    PTCLDY    72  62  71 S7        29.96R
JOPLIN         CLOUDY    72  64  76 SE8       29.90F

$$
MOZ032>034-039>042-045>050-055>058-069>072-270200-
...CENTRAL MISSOURI...

CITY           SKY/WX    TMP DP  RH WIND       PRES   REMARKS
COLUMBIA       CLEAR     73  61  65 SW12      29.91R
JEFFERSON CITY CLEAR     76  60  57 S7        29.90S
ROLLA          CLEAR     70  61  73 SW7       29.94S
SEDALIA        CLEAR     74  62  66 SW10      29.91S
WARRENSBURG    PTCLDY    73  63  68 S8        29.88S
OSAGE BEACH    CLEAR     73  61  64 S3        29.94S

$$
MOZ051-052-059>065-270200-
...EAST CENTRAL MISSOURI...

CITY           SKY/WX    TMP DP  RH WIND       PRES   REMARKS
ST LOUIS INTL  PTCLDY    78  58  49 SW12      29.93R
SPIRIT OF STL  PTCLDY   N/A N/A N/A SW7       29.92R
ST CHARLES     CLEAR     74  62  66 SW8       29.91R

$$
MOZ072>076-082>087-097>100-106>115-270200-
...SOUTH CENTRAL AND SOUTHEAST MISSOURI...

CITY           SKY/WX    TMP DP  RH WIND       PRES   REMARKS
CAPE GIRARDEAU PTCLDY    73  64  73 S7        29.99S
FARMINGTON     CLEAR     72  61  68 SW8       30.02R
POPLAR BLUFF   CLEAR     73  64  73 S9        29.99R
WEST PLAINS    CLEAR     73  62  68 S5        30.00S

$$



USA.gov is the U.S. government's official web portal to all federal, state and local government web resources and services.